Location: Banios
(43.0451°N, 0.2335°E)
Time: 11:35:02
(UTC+00:00)

Envisat - Pass Details

Date: 15 December 2021
Orbit: 764 x 766 km, 98.2° (Epoch: 20 January)

Event Time Altitude Azimuth Distance (km) Brightness Sun altitude
Rises 03:44:01 0° 30° (NNE) 3,240 6.6 -39.1°
Reaches altitude 10° 03:47:10 10° 51° (NE) 2,308 6.0 -38.5°
Maximum altitude 03:50:24 17° 91° (E) 1,872 5.6 -37.9°
Drops below altitude 10° 03:53:37 10° 130° (SE) 2,296 5.9 -37.4°
Sets 03:56:43 0° 151° (SSE) 3,216 6.5 -36.8°
